Regional Weather Roundup
Issued by NWS

Home | Current Version | Previous Version | Text Only | Print | Product List | Glossary Off
Versions: 1 2 3 4 5 6 7 8 9 10 11 12 13 14 15 16 17 18 19 20 21 22 23 24 25 26 27

000
ASUS45 KTFX 230210
RWRMT
MONTANA REGIONAL WEATHER ROUNDUP
NATIONAL WEATHER SERVICE GREAT FALLS MT
800 PM MDT MON MAY 22 2017

NOTE: "FAIR" INDICATES FEW OR NO CLOUDS BELOW 12000 FEET WITH NO
SIGNIFICANT WEATHER AND/OR OBSTRUCTIONS TO VISIBILITY.

MTZ001>007-043-230300-
WEST OF THE DIVIDE

CITY           SKY/WX    TMP DP  RH WIND       PRES   REMARKS
KALISPELL      SUNNY     77  41  27 CALM      30.11F
MISSOULA       SUNNY     74  37  26 N12       30.14S
BUTTE          CLOUDY    61  37  41 SE12      30.27R
MULLAN PASS    SUNNY     59  32  36 NW5       30.28S
ANACONDA         N/A     66  39  37 CALM      30.23S
DEER LODGE       N/A     64  41  42 N5        30.25S
EUREKA           N/A     81  39  22 CALM      30.08F
HAMILTON         N/A     73  45  35 NW5       30.16S
LIBBY            N/A     81  39  22 NW3       30.08S
PLAINS           N/A     77  46  33 E1        30.10
RONAN            N/A     75  40  28 CALM      30.17F
$$

MTZ008-052>055-230300-
SOUTHWEST MONTANA

CITY           SKY/WX    TMP DP  RH WIND       PRES   REMARKS
BOZEMAN        CLOUDY    63  40  42 CALM      30.24R
DILLON         CLOUDY    62  38  40 NE16      30.22R
W YELLOWSTONE  CLOUDY    54  34  47 NE10G17   30.31R
ENNIS          PTCLDY    61  36  39 NE13G24   30.30R
$$

MTZ009-010-012-014-046-048-049-054-230300-
EAST SLOPES AND CENTRAL MONTANA

CITY           SKY/WX    TMP DP  RH WIND       PRES   REMARKS
CUT BANK       CLEAR     67  39  35 E9        30.18S
GREAT FALLS    CLOUDY    67  43  41 CALM      30.19S
HELENA         CLOUDY    71  38  29 NE7       30.21S
AUGUSTA        MOCLDY    64  43  46 S6        30.21F
BOWMANS CRNR     N/A     63  40  43 SW3       30.20F
CHOTEAU          N/A     66  45  45 NE6       30.21F
CONRAD           N/A     72  43  35 N5        30.20S
FAIRFIELD        N/A     68  38  33 SE6       30.19S
POWER            N/A     65  40  38 NE7       30.19S
RAYNESFORD     MOCLDY    60  42  51 SW6       30.21S
ULM              N/A     62  47  59 SW5       30.19F
$$

MTZ011-013-016-021-045-047-050-051-230300-
NORTH CENTRAL MONTANA

CITY           SKY/WX    TMP DP  RH WIND       PRES   REMARKS
HAVRE          CLEAR     68  33  27 NE7       30.16S
LEWISTOWN      CLEAR     61  35  37 N8        30.21S
N BAR RANCH      N/A     59  32  36 NE10      30.24S
CHINOOK          N/A     70  30  23 N3        30.17S
DENTON           N/A     63  41  45 NE6       30.16R
FORT BENTON      N/A    N/A N/A N/A MISG      30.17S
GEYSER           N/A     62  39  42 N7        30.20S
JUDITH GAP       N/A     58  37  45 N12       30.22S
STANFORD         N/A     60  37  42 N8        30.22S
WINIFRED         N/A     63  37  37 NE7       30.19R
$$

MTZ017>020-022>027-061-062-230300-
NORTHEAST MONTANA

CITY           SKY/WX    TMP DP  RH WIND       PRES   REMARKS
GLASGOW        PTCLDY    62  33  33 NE8       30.15R
JORDAN           N/A     62  32  32 N9        30.16R
SIDNEY         CLOUDY    63  32  31 N10       30.10R
WOLF POINT     PTCLDY    64  32  30 N10       30.14R
MALTA          PTCLDY    66  32  28 NE9       30.16R
PLENTYWOOD       N/A     61  34  36 N9        30.11R
POPLAR           N/A     64  32  29 N12       30.13R
SCOBEY           N/A     60  32  34 N6        30.13
$$

MTZ028>42-056>058-230300-
SOUTHCENTRAL AND SOUTHEAST MONTANA

CITY           SKY/WX    TMP DP  RH WIND       PRES   REMARKS
BAKER          CLOUDY    57  37  47 N12       30.12R
BILLINGS       PTCLDY    63  35  35 NE8       30.19R
LIVINGSTON     CLOUDY    58  41  53 W5        30.23S
MILES CITY     MOCLDY    58  40  51 W5        30.14S
BIG TIMBER     CLEAR     59  37  44 NW6       30.26S
EKALAKA          N/A     52  38  58 W5        30.11R
FORSYTH          N/A     63  34  34 N8        30.15R
LAUREL           N/A     64  36  35 MISG      30.17F
ROUNDUP          N/A     65  31  28 N8        30.09S
$$

REGIONAL REPORTS...DAKOTAS

CITY           SKY/WX    TMP DP  RH WIND       PRES   REMARKS
WILLISTON      CLOUDY    65  33  30 N15       30.08R
MINOT          CLOUDY    57  37  47 N18       30.05R
DICKINSON      CLOUDY    57  33  40 NW9       30.05R
BEACH          CLOUDY    57  34  41 N9        30.14R
TIOGA          MOCLDY    57  36  44 N8        30.09R
WATFORD CITY   MOCLDY    61  34  36 N9        30.07R
BISMARCK       CLOUDY    60  38  43 NW10      29.99R
GRAND FORKS    CLOUDY    52  47  83 N13       29.90R
FARGO          CLOUDY    49  46  90 NW9       29.88S
BUFFALO SD       N/A     55  38  52 N13       30.04R
RAPID CITY     CLOUDY    50  42  74 NW10      30.11R
$$

REGIONAL REPORTS...WYOMING/IDAHO/WASHINGTON

CITY           SKY/WX    TMP DP  RH WIND       PRES   REMARKS
GILLETTE       CLOUDY    49  41  74 N9        30.18R
SHERIDAN       PTCLDY    55  40  56 N8        30.19R
BUFFALO WY     CLEAR     48  39  71 NW10      30.21R
CODY           MOCLDY    56  35  45 NW7       30.25S
YELLOWSTONE LA   N/A     45  34  65 VRB3      30.37R
IDAHO FALLS    MOCLDY    70  37  29 NE9       30.18R
SALMON         CLEAR     72  36  26 N8        30.12S
BOISE          SUNNY     79  39  23 NW12      30.08F
SPOKANE        MOSUNNY   79  36  21 SW5       30.10F
$$

REGIONAL REPORTS...ALBERTA

CITY           SKY/WX    TMP DP  RH WIND       PRES   REMARKS
EDMONTON       SUNNY     75  41  29 W3        30.02F
CALGARY        MOSUNNY   72  36  26 S15       30.09F
LETHBRIDGE     MOSUNNY   70  39  32 S10       30.13F
MEDICINE HAT   PTCLDY    68  34  28 NE5       30.15S
WATERTON GATE    N/A     68  36  30 E8          N/A
MILK RIVER       N/A     68  37  32 E8          N/A
ONEFOUR          N/A     64  36  34 N6          N/A
$$

REGIONAL REPORTS...SASKATCHEWAN

CITY           SKY/WX    TMP DP  RH WIND       PRES   REMARKS
SWIFT CURRENT  CLEAR     59  36  41 NE7       30.17S
REGINA         PTCLDY    64  28  25 N12       30.12R
SASKATOON      MOCLDY    68  36  30 NW5       30.14F
CYPRESS HILLS    N/A     57  28  33 NE2         N/A
VAL MARIE        N/A     61  28  29 NE8         N/A
ROCKGLEN         N/A     57  30  35 N8          N/A
ASSINIBOIA       N/A     72  43  35 S9          N/A
$$




USA.gov is the U.S. government's official web portal to all federal, state and local government web resources and services.